User: anonymous   Login
Location: Unspecified
(0.0000°N, 0.0000°E)
Time: 18:51:50
(UTC+00:00)
Language:

INTELSAT 1002 - Orbit

View from above orbital plane
View from above orbital plane
View from above satellite
View from above satellite

Ground track
Ground track

The orbit data is extracted from the following two-line orbital elements,

1 28358U 04022A   18344.14508593 -.00000006  00000-0  00000+0 0  9995
2 28358   0.0181 351.2485 0000669   7.3758 131.4524  1.00273295 53093
Epoch (UTC): 10 December 2018 03:28:55
Eccentricity: 0.0000669
inclination: 0.0181°
perigee height: 35783 km
apogee height: 35788 km
right ascension of ascending node: 351.2485°
argument of perigee: 7.3758°
revolutions per day: 1.00273295
mean anomaly at epoch: 131.4524°
orbit number at epoch: 5309

The dashed part of the orbit path shows where the satellite is in the earth's shadow,  

DLR